#timestamp,LO_Frequency,Hit,StdDev 
1583511315.1,286047019.9,P
1583511335.9,286047017.4,P
1583511355.7,286047017.9,P
1583511375.6,286047016.1,Y
1583511395.4,286046996.6,P
1583511415.2,286046997.1,N
1583511435.1,286046997.5,N
1583511436.0,286046997.5,N
1583511455.8,286046997.6,N
1583511475.7,286046997.5,N
1583511495.5,286046996.6,N
1583511515.3,286046996.7,N
1583511535.2,286046999.6,N
1583511555.9,286046997.1,N
1583511575.7,286046996.9,N
1583511595.6,286046999.0,N
1583511615.4,286046997.5,N
1583511635.3,286046997.9,N
1583511655.1,286046998.0,N
1583511656.0,286046998.0,N
1583511675.8,286046997.9,N
1583511695.7,286046997.6,N
1583511715.5,286046997.1,N
1583511735.3,286046999.0,N
1583511755.2,286047002.6,N
1583511775.0,286047001.8,N
1583511775.9,286047001.8,N
1583511795.8,286047002.8,N
1583511815.6,286047000.5,N
1583511835.4,286047000.6,N
1583511855.3,286046999.4,N
1583511875.1,286046999.5,N
1583511895.9,286046997.6,N
1583511915.7,286046995.3,N
1583511935.5,286046994.9,N
1583511955.4,286046997.8,N
1583511975.2,286046997.8,N
1583511995.1,286046997.1,N
1583511996.0,286046997.1,N
1583512015.8,286046997.6,N
1583512035.6,286046997.4,N
1583512055.5,286046996.8,N
1583512075.3,286046997.1,N
1583512095.1,286046994.9,N
1583512115.9,286046994.9,N
1583512135.7,286046997.9,N
1583512155.6,286046997.6,N
1583512175.4,286046995.1,N
1583512195.2,286046998.0,N
1583512215.1,286046997.9,N
1583512216.0,286046997.9,N
1583512235.8,286046997.8,N
1583512255.6,286046999.3,N
1583512275.5,286047000.7,N
1583512295.3,286047000.8,N
1583512315.2,286046998.4,N
1583512335.9,286046998.3,N
1583512355.7,286046998.3,N
1583512375.6,286046998.3,N
1583512395.4,286046998.6,N
1583512415.3,286046998.3,N
1583512435.1,286046998.6,N
1583512436.0,286046998.6,N
1583512455.8,286046999.3,N
1583512475.7,286046998.7,N
1583512495.5,286046998.4,N
1583512515.3,286047000.0,N
1583512535.2,286047002.7,N
1583512555.0,286047001.4,N
1583512555.9,286047001.4,N
1583512575.8,286047003.5,N
1583512595.6,286047006.0,Y
1583512615.4,286047005.5,P
1583512635.3,286047004.9,N
1583512655.1,286047006.1,N
1583512675.8,286047007.3,N
1583512695.7,286047006.2,N
1583512715.5,286047004.5,N
1583512735.4,286047003.5,N
1583512755.2,286047005.7,N
1583512775.0,286047002.9,N
1583512775.9,286047002.9,N
1583512795.8,286047003.7,N
1583512815.6,286047004.2,N
1583512835.4,286047003.7,N
1583512855.3,286047002.5,N
1583512875.1,286047002.5,N
1583512895.9,286047002.5,N
1583512915.7,286047002.4,N
1583512935.5,286047002.4,N
1583512955.4,286047002.8,N
1583512975.2,286047002.5,N
1583512995.0,286047002.3,N
1583512995.9,286047002.3,N
1583513015.8,286047002.1,N
1583513035.6,286047003.6,N
1583513055.5,286047005.6,Y
1583513075.3,286047003.8,P
1583513095.1,286047007.3,P
1583513115.9,286047008.1,P
1583513135.7,286047009.3,Y
1583513155.5,286047005.1,P
1583513175.4,286047004.8,P
1583513195.2,286047006.3,P
1583513215.1,286047007.4,Y
1583513216.0,286047007.4,P
1583513235.8,286047001.8,N
1583513255.6,286047001.9,N
1583513275.5,286047001.5,N
1583513295.3,286047002.3,N
1583513315.2,286046999.7,N
1583513335.9,286046999.7,N
1583513355.7,286046999.9,N
1583513375.6,286047001.5,N
1583513395.4,286047002.3,N
1583513415.2,286046999.7,N
1583513435.1,286046998.4,N
1583513436.0,286046998.4,N
1583513455.8,286046998.3,N
1583513475.7,286047000.7,N
1583513495.5,286047001.2,N
1583513515.3,286046998.2,N
1583513535.2,286047001.0,N
1583513555.0,286047001.0,N
1583513555.9,286047001.0,N
1583513575.7,286047000.0,N
1583513595.6,286047000.3,N
1583513615.4,286047000.9,N
1583513635.3,286047000.5,N
1583513655.1,286046998.1,N
1583513656.0,286046998.1,N
1583513675.8,286047000.5,N
1583513695.7,286046998.2,N
1583513715.5,286046997.2,N
1583513735.3,286046997.6,N
1583513755.2,286046996.3,N
1583513775.0,286046996.4,N
1583513775.9,286046996.4,N
1583513795.8,286046996.2,N
1583513815.6,286046996.2,N
1583513835.4,286046994.1,Y
1583513855.3,286046995.7,P
1583513875.1,286046995.8,N
1583513895.9,286046993.3,P
1583513915.7,286046995.9,N
1583513935.5,286046995.7,N
1583513955.4,286046995.8,N
1583513975.2,286046995.2,Y
1583513995.0,286047000.5,P
1583513995.9,286047000.5,N
